Wetterdaten: Woche 12.02.18 - 18.02.18 (KW7)
Datum Zeit Temp. I. Temp. A. Feuchte I. Feuchte A. Luftdruck Regen Wind Richtung Sonnenschein UV Solar Taupunkt Windchill Windben
12.02.2018 00:00 23,0 C 1,0 C 59 % 94 % 1008,0 hPa 0,0 l/m 5,7 km/h (1 Bft) W-SW 0,00 h 0,0 UV-I 0 W/m 0,2 C 0,5 C 10,7 km/h (2 Bft)
12.02.2018 01:00 22,8 C 1,1 C 59 % 93 % 1008,4 hPa 0,0 l/m 4,2 km/h (1 Bft) W-SW 0,00 h 0,0 UV-I 0 W/m 0,2 C 0,8 C 8,2 km/h (2 Bft)
12.02.2018 02:00 22,7 C 1,1 C 59 % 93 % 1008,7 hPa 0,0 l/m 4,4 km/h (1 Bft) SW 0,00 h 0,0 UV-I 0 W/m 0,1 C 0,8 C 8,1 km/h (2 Bft)
12.02.2018 03:00 22,7 C 0,8 C 59 % 93 % 1008,7 hPa 0,0 l/m 3,1 km/h (1 Bft) S 0,00 h 0,0 UV-I 0 W/m -0,2 C 0,8 C 5,5 km/h (1 Bft)
12.02.2018 04:00 22,6 C 0,4 C 60 % 93 % 1008,7 hPa 0,0 l/m 4,2 km/h (1 Bft) S 0,00 h 0,0 UV-I 0 W/m -0,6 C 0,4 C 7,0 km/h (2 Bft)
12.02.2018 05:00 22,6 C 0,3 C 60 % 94 % 1008,9 hPa 0,0 l/m 5,4 km/h (1 Bft) SW 0,00 h 0,0 UV-I 0 W/m -0,5 C 0,1 C 9,8 km/h (2 Bft)
12.02.2018 06:00 22,7 C 0,2 C 59 % 94 % 1009,3 hPa 0,0 l/m 3,4 km/h (1 Bft) W-SW 0,00 h 0,0 UV-I 0 W/m -0,6 C 0,2 C 6,6 km/h (2 Bft)
12.02.2018 07:00 22,9 C 0,2 C 59 % 93 % 1010,0 hPa 0,0 l/m 4,5 km/h (1 Bft) SW 0,00 h 0,0 UV-I 6 W/m -0,8 C 0,0 C 8,0 km/h (2 Bft)
12.02.2018 08:00 23,0 C 0,3 C 58 % 91 % 1010,7 hPa 0,0 l/m 3,9 km/h (1 Bft) SW 0,00 h 0,0 UV-I 27 W/m -1,1 C 0,2 C 7,2 km/h (2 Bft)
12.02.2018 09:00 23,0 C 0,3 C 57 % 90 % 1011,4 hPa 0,0 l/m 5,4 km/h (1 Bft) S 0,00 h 0,5 UV-I 40 W/m -1,1 C -0,1 C 9,3 km/h (2 Bft)
12.02.2018 10:00 23,1 C 0,6 C 56 % 89 % 1012,1 hPa 0,0 l/m 6,7 km/h (2 Bft) SW 0,17 h 0,7 UV-I 98 W/m -1,1 C -0,6 C 12,5 km/h (3 Bft)
12.02.2018 11:00 23,1 C 0,8 C 56 % 85 % 1012,8 hPa 0,0 l/m 7,4 km/h (2 Bft) SW 0,05 h 0,6 UV-I 96 W/m -1,4 C -0,7 C 12,7 km/h (3 Bft)
12.02.2018 12:00 23,2 C 0,7 C 56 % 85 % 1013,1 hPa 0,0 l/m 6,3 km/h (2 Bft) W-SW 0,27 h 0,7 UV-I 124 W/m -1,5 C -0,3 C 11,5 km/h (2 Bft)
12.02.2018 13:00 23,2 C 1,1 C 56 % 86 % 1013,4 hPa 0,2 l/m 6,0 km/h (2 Bft) W-SW 0,52 h 0,9 UV-I 189 W/m -1,0 C 0,5 C 10,9 km/h (2 Bft)
12.02.2018 14:00 23,4 C 1,8 C 55 % 78 % 1013,6 hPa 0,0 l/m 7,7 km/h (2 Bft) W-SW 0,45 h 0,8 UV-I 210 W/m -1,6 C 0,2 C 13,2 km/h (3 Bft)
12.02.2018 15:00 23,5 C 1,4 C 55 % 81 % 1014,0 hPa 0,0 l/m 7,4 km/h (2 Bft) W-NW 0,22 h 0,6 UV-I 99 W/m -1,5 C 0,0 C 12,0 km/h (2 Bft)
12.02.2018 16:00 23,3 C 0,3 C 55 % 88 % 1014,5 hPa 0,2 l/m 2,2 km/h (1 Bft) W-NW 0,00 h 0,0 UV-I 38 W/m -1,4 C 0,2 C 4,0 km/h (1 Bft)
12.02.2018 17:00 23,2 C -0,4 C 56 % 87 % 1015,1 hPa 0,0 l/m 5,9 km/h (2 Bft) W-SW 0,00 h 0,0 UV-I 8 W/m -2,2 C -0,8 C 9,5 km/h (2 Bft)
12.02.2018 18:00 23,3 C -0,8 C 58 % 87 % 1015,8 hPa 0,0 l/m 5,0 km/h (1 Bft) W-SW 0,00 h 0,0 UV-I 0 W/m -2,6 C -0,8 C 8,1 km/h (2 Bft)
12.02.2018 19:00 23,3 C -1,0 C 58 % 89 % 1016,5 hPa 0,0 l/m 4,7 km/h (1 Bft) W-SW 0,00 h 0,0 UV-I 0 W/m -2,7 C -1,4 C 7,6 km/h (2 Bft)
12.02.2018 20:00 23,2 C -1,6 C 58 % 90 % 1017,0 hPa 0,0 l/m 2,5 km/h (1 Bft) W-SW 0,00 h 0,0 UV-I 0 W/m -3,1 C -1,6 C 4,5 km/h (1 Bft)
12.02.2018 21:00 23,2 C -2,2 C 58 % 91 % 1017,5 hPa 0,0 l/m 0,2 km/h (0 Bft) SW 0,00 h 0,0 UV-I 0 W/m -3,5 C -2,2 C 0,5 km/h (0 Bft)
12.02.2018 22:00 23,2 C -2,6 C 58 % 92 % 1018,0 hPa 0,0 l/m 0,0 km/h (0 Bft) SW 0,00 h 0,0 UV-I 0 W/m -3,8 C -2,6 C 0,1 km/h (0 Bft)
12.02.2018 23:00 23,2 C -2,6 C 58 % 93 % 1018,2 hPa 0,0 l/m 0,6 km/h (0 Bft) S-SO 0,00 h 0,0 UV-I 0 W/m -3,5 C -2,6 C 1,2 km/h (1 Bft)
13.02.2018 00:00 23,0 C -2,5 C 59 % 93 % 1018,4 hPa 0,0 l/m 1,6 km/h (1 Bft) S-SO 0,00 h 0,0 UV-I 0 W/m -3,5 C -2,5 C 3,0 km/h (1 Bft)
13.02.2018 01:00 22,8 C -2,5 C 59 % 93 % 1018,7 hPa 0,0 l/m 0,9 km/h (0 Bft) S-SO 0,00 h 0,0 UV-I 0 W/m -3,5 C -2,5 C 1,9 km/h (1 Bft)
13.02.2018 02:00 22,7 C -2,6 C 60 % 94 % 1018,7 hPa 0,0 l/m 0,9 km/h (0 Bft) S 0,00 h 0,0 UV-I 0 W/m -3,5 C -2,6 C 1,9 km/h (1 Bft)
13.02.2018 03:00 22,6 C -2,6 C 60 % 94 % 1018,7 hPa 0,0 l/m 2,7 km/h (1 Bft) S-SO 0,00 h 0,0 UV-I 0 W/m -3,4 C -2,6 C 4,3 km/h (1 Bft)
13.02.2018 04:00 22,5 C -2,7 C 59 % 93 % 1018,7 hPa 0,0 l/m 2,4 km/h (1 Bft) S 0,00 h 0,0 UV-I 0 W/m -3,6 C -2,7 C 4,3 km/h (1 Bft)
13.02.2018 05:00 22,4 C -2,7 C 60 % 93 % 1018,7 hPa 0,0 l/m 2,0 km/h (1 Bft) SW 0,00 h 0,0 UV-I 0 W/m -3,8 C -2,7 C 3,7 km/h (1 Bft)
13.02.2018 06:00 22,4 C -2,7 C 60 % 92 % 1018,7 hPa 0,0 l/m 1,8 km/h (1 Bft) S 0,00 h 0,0 UV-I 0 W/m -3,8 C -2,7 C 3,7 km/h (1 Bft)
13.02.2018 07:00 22,6 C -2,8 C 60 % 91 % 1018,8 hPa 0,0 l/m 3,9 km/h (1 Bft) S 0,00 h 0,0 UV-I 7 W/m -4,0 C -2,8 C 5,8 km/h (2 Bft)
13.02.2018 08:00 22,8 C -2,8 C 58 % 91 % 1019,0 hPa 0,0 l/m 3,2 km/h (1 Bft) S 0,00 h 0,0 UV-I 26 W/m -4,0 C -2,8 C 5,3 km/h (1 Bft)
13.02.2018 09:00 22,9 C -2,6 C 58 % 91 % 1019,1 hPa 0,0 l/m 2,3 km/h (1 Bft) W-SW 0,00 h 0,5 UV-I 77 W/m -3,9 C -2,6 C 4,3 km/h (1 Bft)
13.02.2018 10:00 23,2 C -1,7 C 59 % 88 % 1018,8 hPa 0,0 l/m 2,1 km/h (1 Bft) W-SW 0,23 h 0,8 UV-I 155 W/m -3,4 C -1,7 C 4,2 km/h (1 Bft)
13.02.2018 11:00 23,8 C -0,6 C 57 % 83 % 1018,4 hPa 0,0 l/m 3,0 km/h (1 Bft) W-SW 0,75 h 1,3 UV-I 325 W/m -3,0 C -0,6 C 5,9 km/h (2 Bft)
13.02.2018 12:00 24,2 C 0,4 C 52 % 79 % 1017,6 hPa 0,0 l/m 1,5 km/h (1 Bft) W-SW 0,98 h 1,3 UV-I 302 W/m -2,8 C 0,4 C 3,7 km/h (1 Bft)
13.02.2018 13:00 24,3 C 1,0 C 53 % 76 % 1016,8 hPa 0,0 l/m 2,7 km/h (1 Bft) NW 0,50 h 1,2 UV-I 222 W/m -2,7 C 0,9 C 5,3 km/h (1 Bft)
13.02.2018 14:00 24,5 C 2,0 C 52 % 69 % 1016,0 hPa 0,0 l/m 1,0 km/h (0 Bft) W-NW 0,87 h 1,0 UV-I 322 W/m -3,2 C 1,9 C 2,5 km/h (1 Bft)
13.02.2018 15:00 24,6 C 2,4 C 51 % 66 % 1015,4 hPa 0,0 l/m 0,3 km/h (0 Bft) O-NO 0,95 h 0,6 UV-I 248 W/m -3,4 C 2,4 C 1,0 km/h (0 Bft)
13.02.2018 16:00 24,3 C 1,3 C 50 % 65 % 1015,4 hPa 0,0 l/m 0,0 km/h (0 Bft) N 0,12 h 0,0 UV-I 86 W/m -4,6 C 1,3 C 0,0 km/h (0 Bft)
13.02.2018 17:00 24,0 C 0,2 C 52 % 67 % 1015,4 hPa 0,0 l/m 0,0 km/h (0 Bft) N 0,00 h 0,0 UV-I 12 W/m -5,1 C 0,2 C 0,0 km/h (0 Bft)
13.02.2018 18:00 23,9 C -0,7 C 53 % 74 % 1015,3 hPa 0,0 l/m 0,0 km/h (0 Bft) N 0,00 h 0,0 UV-I 0 W/m -4,8 C -0,7 C 0,0 km/h (0 Bft)
13.02.2018 19:00 23,5 C -2,0 C 54 % 79 % 1015,3 hPa 0,0 l/m 0,0 km/h (0 Bft) N 0,00 h 0,0 UV-I 0 W/m -5,1 C -2,0 C 0,0 km/h (0 Bft)
13.02.2018 20:00 23,3 C -3,2 C 54 % 83 % 1015,2 hPa 0,0 l/m 0,0 km/h (0 Bft) N 0,00 h 0,0 UV-I 0 W/m -5,7 C -3,2 C 0,0 km/h (0 Bft)
13.02.2018 21:00 23,2 C -4,2 C 55 % 85 % 1015,4 hPa 0,0 l/m 0,0 km/h (0 Bft) N 0,00 h 0,0 UV-I 0 W/m -6,3 C -4,2 C 0,0 km/h (0 Bft)
13.02.2018 22:00 23,3 C -5,1 C 56 % 87 % 1015,6 hPa 0,0 l/m 0,0 km/h (0 Bft) N 0,00 h 0,0 UV-I 0 W/m -6,9 C -5,1 C 0,0 km/h (0 Bft)
13.02.2018 23:00 23,3 C -5,8 C 56 % 88 % 1015,7 hPa 0,0 l/m 0,0 km/h (0 Bft) N 0,00 h 0,0 UV-I 0 W/m -7,4 C -5,8 C 0,0 km/h (0 Bft)
14.02.2018 00:00 23,1 C -6,4 C 57 % 89 % 1015,8 hPa 0,0 l/m 0,0 km/h (0 Bft) N 0,00 h 0,0 UV-I 0 W/m -8,0 C -6,4 C 0,0 km/h (0 Bft)
14.02.2018 01:00 22,8 C -7,1 C 58 % 89 % 1015,9 hPa 0,0 l/m 0,0 km/h (0 Bft) N 0,00 h 0,0 UV-I 0 W/m -8,6 C -7,1 C 0,0 km/h (0 Bft)
14.02.2018 02:00 22,7 C -7,6 C 58 % 89 % 1016,1 hPa 0,0 l/m 0,0 km/h (0 Bft) N 0,00 h 0,0 UV-I 0 W/m -9,1 C -7,6 C 0,0 km/h (0 Bft)
14.02.2018 03:00 22,6 C -8,1 C 58 % 90 % 1016,4 hPa 0,0 l/m 0,0 km/h (0 Bft) N 0,00 h 0,0 UV-I 0 W/m -9,5 C -8,1 C 0,0 km/h (0 Bft)
14.02.2018 04:00 22,5 C -8,3 C 59 % 91 % 1016,8 hPa 0,0 l/m 0,0 km/h (0 Bft) N 0,00 h 0,0 UV-I 0 W/m -9,5 C -8,3 C 0,0 km/h (0 Bft)
14.02.2018 05:00 22,4 C -8,6 C 59 % 91 % 1017,4 hPa 0,0 l/m 0,0 km/h (0 Bft) N 0,00 h 0,0 UV-I 0 W/m -9,8 C -8,6 C 0,0 km/h (0 Bft)
14.02.2018 06:00 22,7 C -9,0 C 58 % 91 % 1018,2 hPa 0,0 l/m 0,0 km/h (0 Bft) N 0,00 h 0,0 UV-I 0 W/m -10,2 C -9,0 C 0,0 km/h (0 Bft)
14.02.2018 07:00 22,9 C -9,4 C 58 % 91 % 1018,9 hPa 0,0 l/m 0,0 km/h (0 Bft) N 0,00 h 0,0 UV-I 13 W/m -10,6 C -9,4 C 0,0 km/h (0 Bft)
14.02.2018 08:00 23,0 C -8,0 C 58 % 92 % 1019,5 hPa 0,0 l/m 0,0 km/h (0 Bft) N 0,20 h 0,5 UV-I 89 W/m -9,1 C -8,0 C 0,0 km/h (0 Bft)
14.02.2018 09:00 24,4 C -3,6 C 56 % 89 % 1019,8 hPa 0,0 l/m 0,0 km/h (0 Bft) N 1,00 h 0,7 UV-I 249 W/m -5,1 C -3,6 C 0,0 km/h (0 Bft)
14.02.2018 10:00 25,3 C 0,0 C 52 % 80 % 1020,0 hPa 0,0 l/m 1,2 km/h (1 Bft) O-NO 1,00 h 1,1 UV-I 371 W/m -3,0 C -0,0 C 3,3 km/h (1 Bft)
14.02.2018 11:00 25,1 C 1,8 C 49 % 68 % 1020,1 hPa 0,0 l/m 3,3 km/h (1 Bft) O-NO 0,65 h 1,2 UV-I 318 W/m -3,4 C 1,6 C 7,3 km/h (2 Bft)
14.02.2018 12:00 25,1 C 2,6 C 47 % 63 % 1020,1 hPa 0,0 l/m 3,8 km/h (1 Bft) O-SO 1,02 h 1,5 UV-I 460 W/m -3,6 C 2,3 C 7,7 km/h (2 Bft)
14.02.2018 13:00 25,1 C 3,6 C 48 % 58 % 1020,1 hPa 0,0 l/m 0,6 km/h (0 Bft) O-SO 0,88 h 1,2 UV-I 407 W/m -4,0 C 3,6 C 1,5 km/h (1 Bft)
14.02.2018 14:00 24,9 C 2,3 C 48 % 59 % 1020,0 hPa 0,0 l/m 0,0 km/h (0 Bft) N 0,22 h 0,8 UV-I 126 W/m -4,9 C 2,3 C 0,0 km/h (0 Bft)
14.02.2018 15:00 24,5 C 1,6 C 50 % 61 % 1020,3 hPa 0,0 l/m 0,0 km/h (0 Bft) N 0,00 h 0,5 UV-I 50 W/m -5,0 C 1,6 C 0,0 km/h (0 Bft)
14.02.2018 16:00 24,1 C 1,1 C 51 % 63 % 1020,6 hPa 0,0 l/m 0,0 km/h (0 Bft) N 0,00 h 0,0 UV-I 32 W/m -5,1 C 1,1 C 0,0 km/h (0 Bft)
14.02.2018 17:00 23,8 C 0,5 C 51 % 67 % 1021,0 hPa 0,0 l/m 0,0 km/h (0 Bft) N 0,00 h 0,0 UV-I 12 W/m -4,9 C 0,5 C 0,0 km/h (0 Bft)
14.02.2018 18:00 23,7 C -0,7 C 52 % 72 % 1021,6 hPa 0,0 l/m 0,0 km/h (0 Bft) N 0,00 h 0,0 UV-I 0 W/m -5,0 C -0,7 C 0,0 km/h (0 Bft)
14.02.2018 19:00 23,5 C -2,0 C 52 % 77 % 1022,1 hPa 0,0 l/m 0,0 km/h (0 Bft) N 0,00 h 0,0 UV-I 0 W/m -5,5 C -2,0 C 0,0 km/h (0 Bft)
14.02.2018 20:00 23,2 C -2,6 C 53 % 79 % 1022,7 hPa 0,0 l/m 0,0 km/h (0 Bft) N 0,00 h 0,0 UV-I 0 W/m -5,7 C -2,6 C 0,0 km/h (0 Bft)
14.02.2018 21:00 23,4 C -3,4 C 53 % 80 % 1023,1 hPa 0,0 l/m 0,0 km/h (0 Bft) N 0,00 h 0,0 UV-I 0 W/m -6,3 C -3,4 C 0,0 km/h (0 Bft)
14.02.2018 22:00 23,6 C -4,3 C 54 % 84 % 1022,9 hPa 0,0 l/m 0,0 km/h (0 Bft) N 0,00 h 0,0 UV-I 0 W/m -6,6 C -4,3 C 0,0 km/h (0 Bft)
14.02.2018 23:00 23,6 C -5,0 C 54 % 85 % 1022,8 hPa 0,0 l/m 0,0 km/h (0 Bft) N 0,00 h 0,0 UV-I 0 W/m -7,1 C -5,0 C 0,0 km/h (0 Bft)
15.02.2018 00:00 23,4 C -5,9 C 55 % 86 % 1022,4 hPa 0,0 l/m 0,0 km/h (0 Bft) N 0,00 h 0,0 UV-I 0 W/m -7,8 C -5,9 C 0,0 km/h (0 Bft)
15.02.2018 01:00 23,2 C -6,6 C 56 % 87 % 1022,5 hPa 0,0 l/m 0,0 km/h (0 Bft) N 0,00 h 0,0 UV-I 0 W/m -8,4 C -6,6 C 0,0 km/h (0 Bft)
15.02.2018 02:00 23,0 C -7,3 C 56 % 88 % 1022,5 hPa 0,0 l/m 0,0 km/h (0 Bft) N 0,00 h 0,0 UV-I 0 W/m -8,9 C -7,3 C 0,0 km/h (0 Bft)
15.02.2018 03:00 22,9 C -7,8 C 56 % 89 % 1022,1 hPa 0,0 l/m 0,0 km/h (0 Bft) N 0,00 h 0,0 UV-I 0 W/m -9,3 C -7,8 C 0,0 km/h (0 Bft)
15.02.2018 04:00 22,9 C -8,1 C 56 % 90 % 1021,8 hPa 0,0 l/m 0,0 km/h (0 Bft) N 0,00 h 0,0 UV-I 0 W/m -9,4 C -8,1 C 0,0 km/h (0 Bft)
15.02.2018 05:00 22,8 C -8,0 C 56 % 91 % 1021,8 hPa 0,0 l/m 0,0 km/h (0 Bft) N 0,00 h 0,0 UV-I 0 W/m -9,2 C -8,0 C 0,0 km/h (0 Bft)
15.02.2018 06:00 23,0 C -7,7 C 56 % 91 % 1021,5 hPa 0,0 l/m 0,0 km/h (0 Bft) N 0,00 h 0,0 UV-I 0 W/m -8,9 C -7,7 C 0,0 km/h (0 Bft)
15.02.2018 07:00 23,1 C -5,8 C 56 % 92 % 1021,3 hPa 0,0 l/m 0,0 km/h (0 Bft) N 0,00 h 0,0 UV-I 11 W/m -6,8 C -5,8 C 0,0 km/h (0 Bft)
15.02.2018 08:00 23,2 C -4,0 C 56 % 89 % 1021,3 hPa 0,0 l/m 0,0 km/h (0 Bft) N 0,00 h 0,0 UV-I 37 W/m -5,5 C -4,0 C 0,0 km/h (0 Bft)
15.02.2018 09:00 23,3 C -3,1 C 56 % 87 % 1021,4 hPa 0,0 l/m 0,0 km/h (0 Bft) N 0,00 h 0,5 UV-I 61 W/m -5,0 C -3,1 C 0,0 km/h (0 Bft)
15.02.2018 10:00 23,4 C -1,4 C 55 % 76 % 1021,1 hPa 0,0 l/m 2,9 km/h (1 Bft) O-SO 0,62 h 0,8 UV-I 167 W/m -5,0 C -1,8 C 5,5 km/h (1 Bft)
15.02.2018 11:00 23,6 C -0,0 C 48 % 68 % 1020,5 hPa 0,0 l/m 8,4 km/h (2 Bft) SO 1,00 h 1,2 UV-I 261 W/m -5,3 C -2,1 C 13,7 km/h (3 Bft)
15.02.2018 12:00 23,7 C 1,2 C 47 % 62 % 1020,3 hPa 0,0 l/m 5,4 km/h (1 Bft) SO 1,00 h 1,2 UV-I 250 W/m -5,3 C 0,8 C 9,6 km/h (2 Bft)
15.02.2018 13:00 23,7 C 1,5 C 47 % 55 % 1019,9 hPa 0,0 l/m 10,1 km/h (2 Bft) S-SO 0,83 h 1,0 UV-I 177 W/m -6,4 C -1,8 C 15,3 km/h (3 Bft)
15.02.2018 14:00 23,5 C 1,4 C 47 % 55 % 1019,5 hPa 0,0 l/m 11,0 km/h (2 Bft) S-SO 0,00 h 0,6 UV-I 108 W/m -6,6 C -2,4 C 16,2 km/h (3 Bft)
15.02.2018 15:00 23,3 C 1,4 C 48 % 57 % 1019,6 hPa 0,0 l/m 8,0 km/h (2 Bft) S-SO 0,00 h 0,5 UV-I 56 W/m -6,1 C -0,4 C 12,1 km/h (2 Bft)
15.02.2018 16:00 23,2 C 0,9 C 49 % 63 % 1019,7 hPa 0,0 l/m 11,1 km/h (2 Bft) S-SO 0,00 h 0,0 UV-I 19 W/m -5,3 C -3,0 C 16,6 km/h (3 Bft)
15.02.2018 17:00 23,1 C -0,4 C 50 % 78 % 1020,3 hPa 0,0 l/m 8,5 km/h (2 Bft) S-SO 0,00 h 0,0 UV-I 9 W/m -3,7 C -2,5 C 13,0 km/h (3 Bft)
15.02.2018 18:00 23,1 C -1,0 C 52 % 86 % 1020,6 hPa 0,0 l/m 6,0 km/h (2 Bft) S-SO 0,00 h 0,0 UV-I 0 W/m -3,1 C -1,7 C 9,1 km/h (2 Bft)
15.02.2018 19:00 23,2 C -1,0 C 53 % 89 % 1020,7 hPa 0,0 l/m 4,8 km/h (1 Bft) S 0,00 h 0,0 UV-I 0 W/m -2,5 C -1,5 C 7,8 km/h (2 Bft)
15.02.2018 20:00 23,2 C -0,9 C 52 % 91 % 1020,6 hPa 0,0 l/m 6,7 km/h (2 Bft) S 0,00 h 0,0 UV-I 0 W/m -2,2 C -1,8 C 10,3 km/h (2 Bft)
15.02.2018 21:00 23,3 C -0,9 C 52 % 93 % 1020,5 hPa 0,0 l/m 5,9 km/h (2 Bft) S 0,00 h 0,0 UV-I 0 W/m -2,0 C -1,4 C 8,9 km/h (2 Bft)
15.02.2018 22:00 23,3 C -0,7 C 53 % 93 % 1020,6 hPa 0,0 l/m 3,9 km/h (1 Bft) S 0,00 h 0,0 UV-I 0 W/m -1,7 C -1,0 C 6,5 km/h (2 Bft)
15.02.2018 23:00 23,3 C -0,6 C 54 % 94 % 1020,5 hPa 0,0 l/m 2,0 km/h (1 Bft) S 0,00 h 0,0 UV-I 0 W/m -1,4 C -0,6 C 3,9 km/h (1 Bft)
16.02.2018 00:00 23,2 C -0,4 C 54 % 95 % 1020,6 hPa 0,4 l/m 1,3 km/h (1 Bft) SW 0,00 h 0,0 UV-I 0 W/m -1,2 C -0,4 C 3,0 km/h (1 Bft)
16.02.2018 01:00 23,0 C -0,3 C 55 % 95 % 1020,9 hPa 0,6 l/m 1,1 km/h (1 Bft) W-SW 0,00 h 0,0 UV-I 0 W/m -1,0 C -0,3 C 2,6 km/h (1 Bft)
16.02.2018 02:00 22,9 C -0,3 C 56 % 95 % 1021,0 hPa 0,6 l/m 0,3 km/h (0 Bft) SW 0,00 h 0,0 UV-I 0 W/m -1,0 C -0,3 C 0,9 km/h (0 Bft)
16.02.2018 03:00 22,8 C -0,3 C 57 % 95 % 1021,4 hPa 1,0 l/m 0,0 km/h (0 Bft) S-SW 0,00 h 0,0 UV-I 0 W/m -1,0 C -0,3 C 0,1 km/h (0 Bft)
16.02.2018 04:00 22,8 C -0,2 C 58 % 95 % 1021,5 hPa 0,4 l/m 0,0 km/h (0 Bft) SO 0,00 h 0,0 UV-I 0 W/m -0,9 C -0,2 C 0,1 km/h (0 Bft)
16.02.2018 05:00 22,7 C -0,1 C 58 % 95 % 1022,1 hPa 0,4 l/m 0,0 km/h (0 Bft) N 0,00 h 0,0 UV-I 0 W/m -0,8 C -0,1 C 0,0 km/h (0 Bft)
16.02.2018 06:00 22,7 C -0,1 C 58 % 96 % 1023,1 hPa 0,0 l/m 0,0 km/h (0 Bft) N 0,00 h 0,0 UV-I 0 W/m -0,7 C -0,1 C 0,0 km/h (0 Bft)
16.02.2018 07:00 23,0 C 0,1 C 57 % 96 % 1023,9 hPa 0,0 l/m 0,0 km/h (0 Bft) N 0,00 h 0,0 UV-I 0 W/m -0,4 C 0,1 C 0,0 km/h (0 Bft)
16.02.2018 08:00 23,2 C 0,4 C 56 % 96 % 1024,8 hPa 0,0 l/m 0,0 km/h (0 Bft) N 0,00 h 0,0 UV-I 12 W/m -0,2 C 0,4 C 0,0 km/h (0 Bft)
16.02.2018 09:00 23,3 C 1,0 C 56 % 96 % 1025,6 hPa 0,0 l/m 0,0 km/h (0 Bft) N 0,00 h 0,6 UV-I 26 W/m 0,4 C 1,0 C 0,0 km/h (0 Bft)
16.02.2018 10:00 23,4 C 1,5 C 56 % 96 % 1026,3 hPa 0,0 l/m 0,0 km/h (0 Bft) N 0,00 h 0,7 UV-I 109 W/m 1,0 C 1,5 C 0,0 km/h (0 Bft)
16.02.2018 11:00 23,5 C 2,1 C 55 % 94 % 1027,0 hPa 0,0 l/m 0,6 km/h (0 Bft) S 0,70 h 1,0 UV-I 179 W/m 1,2 C 2,1 C 1,8 km/h (1 Bft)
16.02.2018 12:00 23,9 C 2,5 C 56 % 90 % 1027,2 hPa 0,0 l/m 1,8 km/h (1 Bft) S 0,98 h 1,3 UV-I 243 W/m 1,1 C 2,5 C 4,3 km/h (1 Bft)
16.02.2018 13:00 24,0 C 2,5 C 55 % 91 % 1027,1 hPa 0,0 l/m 2,6 km/h (1 Bft) W-SW 0,57 h 1,1 UV-I 222 W/m 1,1 C 2,5 C 5,5 km/h (1 Bft)
16.02.2018 14:00 24,1 C 2,6 C 54 % 90 % 1027,0 hPa 0,0 l/m 2,1 km/h (1 Bft) S 0,75 h 0,9 UV-I 195 W/m 1,1 C 2,6 C 4,9 km/h (1 Bft)
16.02.2018 15:00 24,1 C 2,6 C 53 % 90 % 1027,1 hPa 0,0 l/m 4,5 km/h (1 Bft) S 0,78 h 0,6 UV-I 206 W/m 1,0 C 2,5 C 8,2 km/h (2 Bft)
16.02.2018 16:00 24,0 C 1,7 C 53 % 91 % 1027,6 hPa 0,0 l/m 2,5 km/h (1 Bft) S-SO 0,17 h 0,0 UV-I 84 W/m 0,4 C 1,7 C 5,1 km/h (1 Bft)
16.02.2018 17:00 23,8 C 1,0 C 54 % 91 % 1027,9 hPa 0,0 l/m 1,4 km/h (1 Bft) S-SW 0,00 h 0,0 UV-I 11 W/m -0,3 C 1,0 C 3,4 km/h (1 Bft)
16.02.2018 18:00 23,5 C 0,6 C 53 % 92 % 1028,2 hPa 0,0 l/m 1,1 km/h (1 Bft) SW 0,00 h 0,0 UV-I 0 W/m -0,6 C 0,6 C 2,5 km/h (1 Bft)
16.02.2018 19:00 23,6 C 0,7 C 54 % 92 % 1028,6 hPa 0,0 l/m 0,7 km/h (0 Bft) W-SW 0,00 h 0,0 UV-I 0 W/m -0,4 C 0,7 C 1,6 km/h (1 Bft)
16.02.2018 20:00 23,6 C 0,5 C 56 % 92 % 1028,5 hPa 0,0 l/m 0,0 km/h (0 Bft) N 0,00 h 0,0 UV-I 0 W/m -0,7 C 0,5 C 0,2 km/h (0 Bft)
16.02.2018 21:00 23,6 C -0,4 C 56 % 92 % 1028,2 hPa 0,0 l/m 0,0 km/h (0 Bft) N 0,00 h 0,0 UV-I 0 W/m -1,6 C -0,4 C 0,0 km/h (0 Bft)
16.02.2018 22:00 23,5 C -1,5 C 56 % 92 % 1028,1 hPa 0,0 l/m 0,1 km/h (0 Bft) O 0,00 h 0,0 UV-I 0 W/m -2,6 C -1,5 C 0,2 km/h (0 Bft)
16.02.2018 23:00 23,4 C -2,4 C 56 % 93 % 1028,3 hPa 0,0 l/m 0,2 km/h (0 Bft) N 0,00 h 0,0 UV-I 0 W/m -3,4 C -2,4 C 0,5 km/h (0 Bft)
17.02.2018 00:00 23,2 C -3,1 C 57 % 93 % 1028,2 hPa 0,0 l/m 0,5 km/h (0 Bft) SO 0,00 h 0,0 UV-I 0 W/m -4,1 C -3,1 C 0,7 km/h (0 Bft)
17.02.2018 01:00 22,9 C -2,8 C 58 % 94 % 1028,0 hPa 0,0 l/m 0,0 km/h (0 Bft) O-NO 0,00 h 0,0 UV-I 0 W/m -3,6 C -2,8 C 0,5 km/h (0 Bft)
17.02.2018 02:00 22,8 C -3,0 C 58 % 95 % 1027,6 hPa 0,0 l/m 0,0 km/h (0 Bft) N 0,00 h 0,0 UV-I 0 W/m -3,7 C -3,0 C 0,0 km/h (0 Bft)
17.02.2018 03:00 22,7 C -3,4 C 59 % 95 % 1027,0 hPa 0,0 l/m 0,0 km/h (0 Bft) N 0,00 h 0,0 UV-I 0 W/m -4,0 C -3,4 C 0,0 km/h (0 Bft)
17.02.2018 04:00 22,7 C -3,8 C 60 % 95 % 1026,5 hPa 0,0 l/m 0,5 km/h (0 Bft) O-NO 0,00 h 0,0 UV-I 0 W/m -4,4 C -3,8 C 1,1 km/h (1 Bft)
17.02.2018 05:00 22,6 C -4,7 C 59 % 95 % 1025,9 hPa 0,0 l/m 0,7 km/h (0 Bft) N 0,00 h 0,0 UV-I 0 W/m -5,4 C -4,7 C 1,8 km/h (1 Bft)
17.02.2018 06:00 22,6 C -5,0 C 59 % 95 % 1025,5 hPa 0,0 l/m 0,3 km/h (0 Bft) N 0,00 h 0,0 UV-I 0 W/m -5,7 C -5,0 C 0,7 km/h (0 Bft)
17.02.2018 07:00 22,9 C -4,9 C 58 % 95 % 1024,7 hPa 0,0 l/m 1,1 km/h (1 Bft) N 0,00 h 0,0 UV-I 9 W/m -5,5 C -4,9 C 2,2 km/h (1 Bft)
17.02.2018 08:00 23,1 C -4,1 C 58 % 96 % 1023,9 hPa 0,0 l/m 0,0 km/h (0 Bft) N 0,00 h 0,0 UV-I 33 W/m -4,6 C -4,1 C 0,2 km/h (0 Bft)
17.02.2018 09:00 23,2 C -2,7 C 57 % 96 % 1023,0 hPa 0,0 l/m 1,7 km/h (1 Bft) O-NO 0,00 h 0,0 UV-I 58 W/m -3,3 C -2,8 C 3,5 km/h (1 Bft)
17.02.2018 10:00 23,4 C -1,3 C 57 % 96 % 1022,7 hPa 0,0 l/m 2,3 km/h (1 Bft) O-NO 0,00 h 0,6 UV-I 81 W/m -1,9 C -1,4 C 5,2 km/h (1 Bft)
17.02.2018 11:00 23,6 C -0,1 C 57 % 95 % 1022,1 hPa 0,0 l/m 2,5 km/h (1 Bft) O-NO 0,72 h 0,8 UV-I 160 W/m -0,9 C -0,2 C 6,0 km/h (2 Bft)
17.02.2018 12:00 23,7 C 0,7 C 56 % 90 % 1021,4 hPa 0,0 l/m 3,5 km/h (1 Bft) NO 0,92 h 0,9 UV-I 159 W/m -0,7 C 0,6 C 9,0 km/h (2 Bft)
17.02.2018 13:00 23,6 C 1,1 C 57 % 87 % 1021,0 hPa 0,0 l/m 3,8 km/h (1 Bft) O-NO 0,10 h 0,7 UV-I 95 W/m -0,8 C 0,7 C 8,7 km/h (2 Bft)
17.02.2018 14:00 23,4 C 0,9 C 57 % 86 % 1020,7 hPa 0,0 l/m 6,0 km/h (2 Bft) O-NO 0,00 h 0,0 UV-I 55 W/m -1,1 C -0,3 C 12,4 km/h (3 Bft)
17.02.2018 15:00 23,3 C 0,7 C 57 % 85 % 1020,9 hPa 0,0 l/m 4,7 km/h (1 Bft) O-NO 0,00 h 0,0 UV-I 53 W/m -1,6 C 0,0 C 10,0 km/h (2 Bft)
17.02.2018 16:00 23,3 C 0,1 C 57 % 85 % 1021,4 hPa 0,0 l/m 3,7 km/h (1 Bft) NO 0,00 h 0,0 UV-I 21 W/m -2,2 C -0,1 C 8,1 km/h (2 Bft)
17.02.2018 17:00 23,3 C -0,2 C 57 % 86 % 1021,8 hPa 0,0 l/m 3,1 km/h (1 Bft) N 0,00 h 0,0 UV-I 5 W/m -2,2 C -0,2 C 6,7 km/h (2 Bft)
17.02.2018 18:00 23,4 C -0,6 C 57 % 89 % 1022,3 hPa 0,0 l/m 4,2 km/h (1 Bft) N 0,00 h 0,0 UV-I 0 W/m -2,2 C -0,8 C 7,9 km/h (2 Bft)
17.02.2018 19:00 23,2 C -0,9 C 58 % 90 % 1022,5 hPa 0,0 l/m 4,1 km/h (1 Bft) N 0,00 h 0,0 UV-I 0 W/m -2,4 C -1,5 C 7,2 km/h (2 Bft)
17.02.2018 20:00 23,5 C -1,0 C 58 % 89 % 1022,8 hPa 0,0 l/m 4,6 km/h (1 Bft) N 0,00 h 0,0 UV-I 0 W/m -2,6 C -1,2 C 8,0 km/h (2 Bft)
17.02.2018 21:00 23,6 C -1,2 C 58 % 90 % 1023,3 hPa 0,0 l/m 2,6 km/h (1 Bft) N-NW 0,00 h 0,0 UV-I 0 W/m -2,6 C -1,2 C 5,1 km/h (1 Bft)
17.02.2018 22:00 23,6 C -1,3 C 58 % 91 % 1024,2 hPa 0,0 l/m 2,7 km/h (1 Bft) N 0,00 h 0,0 UV-I 0 W/m -2,6 C -1,3 C 5,1 km/h (1 Bft)
17.02.2018 23:00 23,6 C -1,3 C 58 % 91 % 1024,7 hPa 0,0 l/m 1,4 km/h (1 Bft) N 0,00 h 0,0 UV-I 0 W/m -2,5 C -1,3 C 3,2 km/h (1 Bft)
18.02.2018 00:00 23,3 C -1,5 C 58 % 91 % 1025,3 hPa 0,0 l/m 1,3 km/h (1 Bft) N 0,00 h 0,0 UV-I 0 W/m -2,8 C -1,5 C 2,9 km/h (1 Bft)
18.02.2018 01:00 23,1 C -1,9 C 59 % 90 % 1026,0 hPa 0,0 l/m 0,5 km/h (0 Bft) N-NW 0,00 h 0,0 UV-I 0 W/m -3,3 C -1,9 C 1,5 km/h (1 Bft)
18.02.2018 02:00 23,0 C -2,3 C 60 % 90 % 1026,6 hPa 0,0 l/m 0,3 km/h (0 Bft) N-NW 0,00 h 0,0 UV-I 0 W/m -3,6 C -2,3 C 0,7 km/h (0 Bft)
18.02.2018 03:00 22,9 C -3,1 C 60 % 90 % 1026,9 hPa 0,0 l/m 0,1 km/h (0 Bft) N-NW 0,00 h 0,0 UV-I 0 W/m -4,5 C -3,1 C 0,5 km/h (0 Bft)
18.02.2018 04:00 22,8 C -3,7 C 61 % 91 % 1027,2 hPa 0,0 l/m 0,3 km/h (0 Bft) N-NW 0,00 h 0,0 UV-I 0 W/m -4,9 C -3,7 C 1,1 km/h (1 Bft)
18.02.2018 05:00 22,8 C -4,0 C 61 % 92 % 1027,4 hPa 0,0 l/m 0,5 km/h (0 Bft) NO 0,00 h 0,0 UV-I 0 W/m -5,1 C -4,0 C 1,4 km/h (1 Bft)
18.02.2018 06:00 23,1 C -4,3 C 59 % 92 % 1027,8 hPa 0,0 l/m 1,6 km/h (1 Bft) N-NO 0,00 h 0,0 UV-I 0 W/m -5,4 C -4,3 C 3,1 km/h (1 Bft)
18.02.2018 07:00 23,2 C -4,7 C 59 % 92 % 1028,2 hPa 0,0 l/m 0,4 km/h (0 Bft) N-NO 0,00 h 0,0 UV-I 21 W/m -5,8 C -4,7 C 1,2 km/h (1 Bft)
18.02.2018 08:00 23,4 C -4,0 C 58 % 94 % 1028,6 hPa 0,0 l/m 0,1 km/h (0 Bft) N-NO 0,22 h 0,5 UV-I 113 W/m -4,9 C -4,0 C 0,2 km/h (0 Bft)
18.02.2018 09:00 24,8 C -0,3 C 55 % 91 % 1028,6 hPa 0,0 l/m 0,0 km/h (0 Bft) N 1,00 h 0,8 UV-I 300 W/m -1,6 C -0,3 C 0,0 km/h (0 Bft)
18.02.2018 10:00 25,3 C 1,8 C 53 % 82 % 1028,7 hPa 0,0 l/m 0,8 km/h (0 Bft) O-SO 0,60 h 0,9 UV-I 244 W/m -0,9 C 1,8 C 2,6 km/h (1 Bft)
18.02.2018 11:00 24,4 C 1,4 C 55 % 82 % 1028,9 hPa 0,0 l/m 0,1 km/h (0 Bft) SO 0,00 h 0,7 UV-I 113 W/m -1,3 C 1,4 C 0,3 km/h (0 Bft)
18.02.2018 12:00 24,0 C 1,7 C 56 % 76 % 1028,8 hPa 0,0 l/m 2,4 km/h (1 Bft) O-SO 0,00 h 0,8 UV-I 130 W/m -2,0 C 1,7 C 5,6 km/h (1 Bft)
18.02.2018 13:00 23,7 C 1,8 C 56 % 73 % 1028,8 hPa 0,0 l/m 1,6 km/h (1 Bft) O-SO 0,00 h 0,6 UV-I 98 W/m -2,5 C 1,8 C 4,5 km/h (1 Bft)
18.02.2018 14:00 23,5 C 1,7 C 56 % 71 % 1028,5 hPa 0,0 l/m 1,7 km/h (1 Bft) O 0,00 h 0,6 UV-I 91 W/m -2,9 C 1,7 C 4,8 km/h (1 Bft)
18.02.2018 15:00 23,4 C 1,6 C 56 % 71 % 1028,4 hPa 0,0 l/m 2,2 km/h (1 Bft) SO 0,00 h 0,5 UV-I 62 W/m -3,1 C 1,6 C 5,0 km/h (1 Bft)
18.02.2018 16:00 23,3 C 1,3 C 56 % 71 % 1028,2 hPa 0,0 l/m 4,0 km/h (1 Bft) SO 0,00 h 0,0 UV-I 33 W/m -3,3 C 1,1 C 7,8 km/h (2 Bft)
18.02.2018 17:00 23,3 C 0,8 C 56 % 72 % 1028,2 hPa 0,0 l/m 4,3 km/h (1 Bft) O-SO 0,00 h 0,0 UV-I 9 W/m -3,7 C 0,5 C 8,2 km/h (2 Bft)
18.02.2018 18:00 23,2 C 0,5 C 56 % 73 % 1028,2 hPa 0,0 l/m 3,5 km/h (1 Bft) SO 0,00 h 0,0 UV-I 0 W/m -3,7 C 0,4 C 6,7 km/h (2 Bft)
18.02.2018 19:00 23,3 C 0,2 C 58 % 75 % 1028,0 hPa 0,0 l/m 3,1 km/h (1 Bft) SO 0,00 h 0,0 UV-I 0 W/m -3,6 C 0,0 C 5,5 km/h (1 Bft)
18.02.2018 20:00 23,4 C 0,0 C 58 % 76 % 1027,7 hPa 0,0 l/m 4,9 km/h (1 Bft) SO 0,00 h 0,0 UV-I 0 W/m -3,7 C -0,4 C 8,4 km/h (2 Bft)
18.02.2018 21:00 23,4 C -0,3 C 58 % 77 % 1027,4 hPa 0,0 l/m 4,9 km/h (1 Bft) SO 0,00 h 0,0 UV-I 0 W/m -3,8 C -0,4 C 8,7 km/h (2 Bft)
18.02.2018 22:00 23,4 C -0,9 C 60 % 78 % 1026,9 hPa 0,0 l/m 3,8 km/h (1 Bft) O-SO 0,00 h 0,0 UV-I 0 W/m -4,4 C -1,0 C 7,0 km/h (2 Bft)
18.02.2018 23:00 23,5 C -1,6 C 60 % 79 % 1026,6 hPa 0,0 l/m 2,7 km/h (1 Bft) O 0,00 h 0,0 UV-I 0 W/m -4,7 C -1,6 C 4,9 km/h (1 Bft)
Min-Datum _ 12.02.18 14.02.18 15.02.18 14.02.18 12.02.18 - 12.02.18 - - - - 14.02.18 14.02.18 12.02.18
_ Min-Zeit 06:00 07:36 11:47 13:45 00:01 - 01:07 - - - - 07:36 07:36 03:18
Minimum _ 22,4 C -9,5 C 44 % 52 % 1007,7 hPa - 0,0 km/h (0 Bft) - - - - -10,8 C -9,5 C 0,0 km/h (0 Bft)
Max-Datum _ 18.02.18 14.02.18 18.02.18 17.02.18 18.02.18 16.02.18 15.02.18 - 12.02.18 16.02.18 16.02.18 16.02.18 14.02.18 15.02.18
_ Max-Zeit 10:15 13:40 04:15 09:45 11:30 03:04 16:23 - 13:46 12:33 12:35 15:02 13:39 16:23
Maximum _ 25,7 C 5,3 C 61 % 97 % 1029,0 hPa 1,0 l/m 22,5 km/h
S-SO (4 Bft)
- 0,03 h 1,8 UV-I 643 W/m 2,0 C 5,2 C 30,6 km/h
SO (5 Bft)
Durchschnitt _ 23,3 C -1,4 C 56 % 86 % 1021,1 hPa #3,8 l/m 2,2 km/h (1 Bft) S #21:59 h 0,8 UV-I 121 W/m -3,6 C -1,6 C 4,0 km/h (1 Bft)